Time,TemperatureF,DewpointF,PressureIn,WindDirection,WindDirectionDegrees,WindSpeedMPH,WindSpeedGustMPH,Humidity,HourlyPrecipIn,Conditions,Clouds,dailyrainin,SolarRadiationWatts/m^2,SoftwareType,DateUTC
2013-01-11 00:02:00,24.0,20.0,-100.00,WSW,248,12.0,29.0,84,0.00,,,0.00,0.000000,,2013-01-11 07:02:00,
2013-01-11 00:32:00,23.0,19.0,-100.00,WSW,247,10.0,19.0,85,0.00,,,-99.99,0.000000,,2013-01-11 07:32:00,
2013-01-11 00:42:00,23.0,19.0,-100.00,WSW,247,10.0,19.0,85,0.00,,,-99.99,0.000000,,2013-01-11 07:42:00,
2013-01-11 00:52:00,23.0,19.0,-100.00,WSW,247,10.0,19.0,85,0.00,,,-99.99,0.000000,,2013-01-11 07:52:00,
2013-01-11 01:02:00,23.0,19.0,-100.00,WSW,247,10.0,19.0,85,0.00,,,-99.99,0.000000,,2013-01-11 08:02:00,
2013-01-11 01:32:00,20.0,12.0,-100.00,WSW,245,12.0,26.0,70,0.00,,,0.00,0.000000,,2013-01-11 08:32:00,
2013-01-11 01:42:00,20.0,12.0,-100.00,WSW,245,12.0,26.0,70,0.00,,,0.00,0.000000,,2013-01-11 08:42:00,
2013-01-11 01:52:00,20.0,12.0,-100.00,WSW,245,12.0,26.0,70,0.00,,,0.00,0.000000,,2013-01-11 08:52:00,
2013-01-11 02:02:00,20.0,12.0,-100.00,WSW,245,12.0,26.0,70,0.00,,,0.00,0.000000,,2013-01-11 09:02:00,
2013-01-11 02:32:00,17.0,12.0,-100.00,SW,235,9.0,21.0,81,0.00,,,0.00,0.000000,,2013-01-11 09:32:00,
2013-01-11 02:42:00,17.0,12.0,-100.00,SW,235,9.0,21.0,81,0.00,,,0.00,0.000000,,2013-01-11 09:42:00,
2013-01-11 02:52:00,17.0,12.0,-100.00,SW,235,9.0,21.0,81,0.00,,,0.00,0.000000,,2013-01-11 09:52:00,
2013-01-11 03:02:00,17.0,12.0,-100.00,SW,235,9.0,21.0,81,0.00,,,0.00,0.000000,,2013-01-11 10:02:00,
2013-01-11 03:32:00,17.0,10.0,-100.00,SW,235,12.0,21.0,74,0.00,,,0.00,0.000000,,2013-01-11 10:32:00,
2013-01-11 03:42:00,17.0,10.0,-100.00,SW,235,12.0,21.0,74,0.00,,,0.00,0.000000,,2013-01-11 10:42:00,
2013-01-11 03:52:00,17.0,10.0,-100.00,SW,235,12.0,21.0,74,0.00,,,0.00,0.000000,,2013-01-11 10:52:00,
2013-01-11 04:02:00,17.0,10.0,-100.00,SW,235,12.0,21.0,74,0.00,,,0.00,0.000000,,2013-01-11 11:02:00,
2013-01-11 04:33:00,16.0,12.0,-100.00,WSW,243,10.0,21.0,84,0.00,,,0.00,0.000000,,2013-01-11 11:33:00,
2013-01-11 04:43:00,16.0,12.0,-100.00,WSW,243,10.0,21.0,84,0.00,,,0.00,0.000000,,2013-01-11 11:43:00,
2013-01-11 04:53:00,16.0,12.0,-100.00,WSW,243,10.0,21.0,84,0.00,,,0.00,0.000000,,2013-01-11 11:53:00,
2013-01-11 05:02:00,16.0,12.0,-100.00,WSW,243,10.0,21.0,84,0.00,,,0.00,0.000000,,2013-01-11 12:02:00,
2013-01-11 05:33:00,15.0,9.0,-100.00,WSW,248,12.0,20.0,78,0.00,,,-99.99,0.000000,,2013-01-11 12:33:00,
2013-01-11 05:43:00,15.0,9.0,-100.00,WSW,248,12.0,20.0,78,0.00,,,-99.99,0.000000,,2013-01-11 12:43:00,
2013-01-11 05:53:00,15.0,9.0,-100.00,WSW,248,12.0,20.0,78,0.00,,,-99.99,0.000000,,2013-01-11 12:53:00,
2013-01-11 06:02:00,15.0,9.0,-100.00,WSW,248,12.0,20.0,78,0.00,,,-99.99,0.000000,,2013-01-11 13:02:00,
2013-01-11 06:33:00,14.0,8.0,-100.00,WSW,239,11.0,22.0,77,0.00,,,-99.99,0.000000,,2013-01-11 13:33:00,
2013-01-11 06:43:00,14.0,8.0,-100.00,WSW,239,11.0,22.0,77,0.00,,,-99.99,0.000000,,2013-01-11 13:43:00,
2013-01-11 06:53:00,14.0,8.0,-100.00,WSW,239,11.0,22.0,77,0.00,,,-99.99,0.000000,,2013-01-11 13:53:00,
2013-01-11 07:03:00,14.0,8.0,-100.00,WSW,239,11.0,22.0,77,0.00,,,-99.99,0.000000,,2013-01-11 14:03:00,
2013-01-11 07:33:00,13.0,8.0,-100.00,SW,232,10.0,20.0,80,0.00,,,0.00,0.000000,,2013-01-11 14:33:00,
2013-01-11 07:43:00,13.0,8.0,-100.00,SW,232,10.0,20.0,80,0.00,,,0.00,0.000000,,2013-01-11 14:43:00,
2013-01-11 07:53:00,13.0,8.0,-100.00,SW,232,10.0,20.0,80,0.00,,,0.00,0.000000,,2013-01-11 14:53:00,
2013-01-11 08:03:00,13.0,8.0,-100.00,SW,232,10.0,20.0,80,0.00,,,0.00,0.000000,,2013-01-11 15:03:00,
2013-01-11 08:33:00,13.0,8.0,-100.00,SW,223,7.0,18.0,80,0.00,,,0.00,13.000000,,2013-01-11 15:33:00,
2013-01-11 08:43:00,13.0,8.0,-100.00,SW,223,7.0,18.0,80,0.00,,,0.00,13.000000,,2013-01-11 15:43:00,
2013-01-11 08:53:00,13.0,8.0,-100.00,SW,223,7.0,18.0,80,0.00,,,0.00,13.000000,,2013-01-11 15:53:00,
2013-01-11 09:02:00,13.0,8.0,-100.00,SW,223,7.0,18.0,80,0.00,,,0.00,13.000000,,2013-01-11 16:02:00,
2013-01-11 09:33:00,16.0,7.0,-100.00,WSW,240,9.0,17.0,67,0.00,,,0.00,131.000000,,2013-01-11 16:33:00,
2013-01-11 09:43:00,16.0,7.0,-100.00,WSW,240,9.0,17.0,67,0.00,,,0.00,131.000000,,2013-01-11 16:43:00,
2013-01-11 09:53:00,16.0,7.0,-100.00,WSW,240,9.0,17.0,67,0.00,,,0.00,131.000000,,2013-01-11 16:53:00,
2013-01-11 10:03:00,16.0,7.0,-100.00,WSW,240,9.0,17.0,67,0.00,,,0.00,131.000000,,2013-01-11 17:03:00,
2013-01-11 10:33:00,19.0,3.0,-100.00,SW,236,11.0,18.0,49,0.00,,,0.00,344.000000,,2013-01-11 17:33:00,
2013-01-11 10:43:00,19.0,3.0,-100.00,SW,236,11.0,18.0,49,0.00,,,0.00,344.000000,,2013-01-11 17:43:00,
2013-01-11 10:53:00,19.0,3.0,-100.00,SW,236,11.0,18.0,49,0.00,,,0.00,344.000000,,2013-01-11 17:53:00,
2013-01-11 11:03:00,19.0,3.0,-100.00,SW,236,11.0,18.0,49,0.00,,,0.00,344.000000,,2013-01-11 18:03:00,
2013-01-11 11:33:00,20.0,-3.0,-100.00,West,259,9.0,19.0,36,0.00,,,0.00,421.000000,,2013-01-11 18:33:00,
2013-01-11 11:43:00,20.0,-3.0,-100.00,West,259,9.0,19.0,36,0.00,,,0.00,421.000000,,2013-01-11 18:43:00,
2013-01-11 11:53:00,20.0,-3.0,-100.00,West,259,9.0,19.0,36,0.00,,,0.00,421.000000,,2013-01-11 18:53:00,
2013-01-11 12:02:00,20.0,-3.0,-100.00,West,259,9.0,19.0,36,0.00,,,0.00,421.000000,,2013-01-11 19:02:00,
2013-01-11 12:33:00,23.0,-6.0,-100.00,West,263,10.0,19.0,27,0.00,,,0.00,528.000000,,2013-01-11 19:33:00,
2013-01-11 12:43:00,23.0,-6.0,-100.00,West,263,10.0,19.0,27,0.00,,,0.00,528.000000,,2013-01-11 19:43:00,
2013-01-11 12:53:00,23.0,-6.0,-100.00,West,263,10.0,19.0,27,0.00,,,0.00,528.000000,,2013-01-11 19:53:00,
2013-01-11 13:02:00,23.0,-6.0,-100.00,West,263,10.0,19.0,27,0.00,,,0.00,528.000000,,2013-01-11 20:02:00,
2013-01-11 13:33:00,24.0,-8.0,-100.00,WSW,252,12.0,20.0,23,0.00,,,0.00,580.000000,,2013-01-11 20:33:00,
2013-01-11 13:43:00,24.0,-8.0,-100.00,WSW,252,12.0,20.0,23,0.00,,,0.00,580.000000,,2013-01-11 20:43:00,
2013-01-11 13:53:00,24.0,-8.0,-100.00,WSW,252,12.0,20.0,23,0.00,,,0.00,580.000000,,2013-01-11 20:53:00,
2013-01-11 14:03:00,24.0,-8.0,-100.00,WSW,252,12.0,20.0,23,0.00,,,0.00,580.000000,,2013-01-11 21:03:00,
2013-01-11 14:33:00,26.0,-7.0,-100.00,West,273,9.0,20.0,23,0.00,,,0.00,531.000000,,2013-01-11 21:33:00,
2013-01-11 14:43:00,26.0,-7.0,-100.00,West,273,9.0,20.0,23,0.00,,,0.00,531.000000,,2013-01-11 21:43:00,
2013-01-11 14:53:00,26.0,-7.0,-100.00,West,273,9.0,20.0,23,0.00,,,0.00,531.000000,,2013-01-11 21:53:00,
2013-01-11 15:02:00,26.0,-7.0,-100.00,West,273,9.0,20.0,23,0.00,,,0.00,531.000000,,2013-01-11 22:02:00,
2013-01-11 15:33:00,26.0,-9.0,-100.00,WSW,253,9.0,20.0,20,0.00,,,0.00,454.000000,,2013-01-11 22:33:00,
2013-01-11 15:42:00,26.0,-9.0,-100.00,WSW,253,9.0,20.0,20,0.00,,,0.00,454.000000,,2013-01-11 22:42:00,
2013-01-11 15:53:00,26.0,-9.0,-100.00,WSW,253,9.0,20.0,20,0.00,,,0.00,454.000000,,2013-01-11 22:53:00,
2013-01-11 16:02:00,26.0,-9.0,-100.00,WSW,253,9.0,20.0,20,0.00,,,0.00,454.000000,,2013-01-11 23:02:00,
2013-01-11 16:33:00,24.0,-8.0,-100.00,WSW,254,8.0,18.0,23,0.00,,,0.00,302.000000,,2013-01-11 23:33:00,
2013-01-11 16:43:00,24.0,-8.0,-100.00,WSW,254,8.0,18.0,23,0.00,,,0.00,302.000000,,2013-01-11 23:43:00,
2013-01-11 16:53:00,24.0,-8.0,-100.00,WSW,254,8.0,18.0,23,0.00,,,0.00,302.000000,,2013-01-11 23:53:00,
2013-01-11 17:02:00,24.0,-8.0,-100.00,WSW,254,8.0,18.0,23,0.00,,,0.00,302.000000,,2013-01-12 00:02:00,
2013-01-11 17:33:00,22.0,-12.0,-100.00,West,261,7.0,17.0,21,0.00,,,0.00,129.000000,,2013-01-12 00:33:00,
2013-01-11 17:43:00,22.0,-12.0,-100.00,West,261,7.0,17.0,21,0.00,,,0.00,129.000000,,2013-01-12 00:43:00,
2013-01-11 17:53:00,22.0,-12.0,-100.00,West,261,7.0,17.0,21,0.00,,,0.00,129.000000,,2013-01-12 00:53:00,
2013-01-11 18:02:00,22.0,-12.0,-100.00,West,261,7.0,17.0,21,0.00,,,0.00,129.000000,,2013-01-12 01:02:00,
2013-01-11 18:33:00,16.0,-11.0,-100.00,West,259,4.0,12.0,29,0.00,,,0.00,8.000000,,2013-01-12 01:33:00,
2013-01-11 18:43:00,16.0,-11.0,-100.00,West,259,4.0,12.0,29,0.00,,,0.00,8.000000,,2013-01-12 01:43:00,
2013-01-11 18:52:00,16.0,-11.0,-100.00,West,259,4.0,12.0,29,0.00,,,0.00,8.000000,,2013-01-12 01:52:00,
2013-01-11 19:02:00,16.0,-11.0,-100.00,West,259,4.0,12.0,29,0.00,,,0.00,8.000000,,2013-01-12 02:02:00,
2013-01-11 19:33:00,12.0,-9.0,-100.00,WSW,251,3.0,5.0,37,0.00,,,0.00,0.000000,,2013-01-12 02:33:00,
2013-01-11 19:43:00,12.0,-9.0,-100.00,WSW,251,3.0,5.0,37,0.00,,,0.00,0.000000,,2013-01-12 02:43:00,
2013-01-11 19:53:00,12.0,-9.0,-100.00,WSW,251,3.0,5.0,37,0.00,,,0.00,0.000000,,2013-01-12 02:53:00,
2013-01-11 20:02:00,12.0,-9.0,-100.00,WSW,251,3.0,5.0,37,0.00,,,0.00,0.000000,,2013-01-12 03:02:00,
2013-01-11 20:33:00,6.0,-10.0,-100.00,NNE,24,1.0,5.0,46,0.00,,,0.00,0.000000,,2013-01-12 03:33:00,
2013-01-11 20:43:00,6.0,-10.0,-100.00,NNE,24,1.0,5.0,46,0.00,,,0.00,0.000000,,2013-01-12 03:43:00,
2013-01-11 20:53:00,6.0,-10.0,-100.00,NNE,24,1.0,5.0,46,0.00,,,0.00,0.000000,,2013-01-12 03:53:00,
2013-01-11 21:02:00,6.0,-10.0,-100.00,NNE,24,1.0,5.0,46,0.00,,,0.00,0.000000,,2013-01-12 04:02:00,
2013-01-11 21:32:00,3.0,-9.0,-100.00,NNE,26,1.0,5.0,55,0.00,,,0.00,0.000000,,2013-01-12 04:32:00,
2013-01-11 21:42:00,3.0,-9.0,-100.00,NNE,26,1.0,5.0,55,0.00,,,0.00,0.000000,,2013-01-12 04:42:00,
2013-01-11 21:52:00,3.0,-9.0,-100.00,NNE,26,1.0,5.0,55,0.00,,,0.00,0.000000,,2013-01-12 04:52:00,
2013-01-11 22:03:00,3.0,-9.0,-100.00,NNE,26,1.0,5.0,55,0.00,,,0.00,0.000000,,2013-01-12 05:03:00,
2013-01-11 22:32:00,5.0,-7.0,-100.00,North,350,2.0,5.0,58,0.00,,,0.00,0.000000,,2013-01-12 05:32:00,
2013-01-11 22:42:00,5.0,-7.0,-100.00,North,350,2.0,5.0,58,0.00,,,0.00,0.000000,,2013-01-12 05:42:00,
2013-01-11 22:52:00,5.0,-7.0,-100.00,North,350,2.0,5.0,58,0.00,,,0.00,0.000000,,2013-01-12 05:52:00,
2013-01-11 23:02:00,5.0,-7.0,-100.00,North,350,2.0,5.0,58,0.00,,,0.00,0.000000,,2013-01-12 06:02:00,
2013-01-11 23:33:00,2.0,-8.0,-100.00,North,3,1.0,5.0,62,0.00,,,0.00,0.000000,,2013-01-12 06:33:00,
2013-01-11 23:43:00,2.0,-8.0,-100.00,North,3,1.0,5.0,62,0.00,,,0.00,0.000000,,2013-01-12 06:43:00,
2013-01-11 23:52:00,2.0,-8.0,-100.00,North,3,1.0,5.0,62,0.00,,,0.00,0.000000,,2013-01-12 06:52:00,